When you browse on this site, cookies collect data to enhance your experience and personalize the content and advertising you see.
Visit our Privacy Policy to learn more. By continuing to use the site, you agree to this use of cookies and data.
  • In Spain
  • List of Countries
  • For 7 days
  • Water Temperature
  • Weather Map
  • Weather Widgets
  • user-avatar
    Login

    Hourly Weather Ganja

    Today, 7 April, Tuesday

    Time Temperature Precipitation Wind Pressure Humidity
    00:00 +6°C° 1.2 mm 7 mps 730 mmHg 87%
    01:00 +6°C° 0.6 mm 7 mps 730 mmHg 87%
    02:00 +6°C° 0.6 mm 7 mps 730 mmHg 87%
    03:00 +5°C° 0.6 mm 7 mps 730 mmHg 86%
    04:00 +5°C° 0.3 mm 7 mps 730 mmHg 85%
    05:00 +4°C° 0.3 mm 7 mps 731 mmHg 84%
    06:00 +4°C° 0.3 mm 7 mps 731 mmHg 83%
    07:00 +4°C° 0.2 mm 7 mps 731 mmHg 81%
    08:00 +4°C° 0.2 mm 7 mps 732 mmHg 79%
    09:00 +3°C° 0.2 mm 7 mps 732 mmHg 77%
    10:00 +3°C° 0.2 mm 7 mps 732 mmHg 78%
    11:00 +4°C° 0.2 mm 7 mps 732 mmHg 78%
    12:00 +4°C° 0.2 mm 7 mps 732 mmHg 78%
    13:00 +4°C° 0.2 mm 6 mps 732 mmHg 78%
    14:00 +4°C° 0.2 mm 6 mps 732 mmHg 78%
    15:00 +5°C° 0.2 mm 5 mps 732 mmHg 78%
    16:00 +3°C° 0.2 mm 5 mps 732 mmHg 80%
    17:00 +4°C° 0.2 mm 4 mps 732 mmHg 82%
    18:00 +3°C° 0.2 mm 4 mps 733 mmHg 84%
    19:00 +3°C° 0.2 mm 4 mps 733 mmHg 88%
    20:00 +1°C° 0.2 mm 4 mps 734 mmHg 91%
    21:00 +2°C° 0.2 mm 3 mps 735 mmHg 94%
    22:00 +2°C° 0.5 mm 3 mps 735 mmHg 95%
    23:00 +1°C° 0.5 mm 4 mps 735 mmHg 95%

    Tomorrow, 8 April, Wednesday

    Time Temperature Precipitation Wind Pressure Humidity
    00:00 0°C° 0.5 mm 4 mps 736 mmHg 95%
    01:00 0°C° 0.2 mm 4 mps 736 mmHg 94%
    02:00 +1°C° 0.2 mm 3 mps 736 mmHg 93%
    03:00 +1°C° 0.2 mm 3 mps 736 mmHg 91%
    04:00 +1°C° 0.1 mm 3 mps 736 mmHg 90%
    05:00 +1°C° 0.1 mm 3 mps 737 mmHg 90%
    06:00 +1°C° 0.1 mm 3 mps 737 mmHg 89%
    07:00 +1°C° 0.1 mm 3 mps 737 mmHg 86%
    08:00 +1°C° 0.1 mm 4 mps 737 mmHg 83%
    09:00 +1°C° 0.1 mm 4 mps 737 mmHg 80%
    10:00 +3°C° 0 mm 4 mps 737 mmHg 77%
    11:00 +3°C° 0 mm 4 mps 736 mmHg 75%
    12:00 +4°C° 0 mm 4 mps 736 mmHg 72%
    13:00 +4°C° 0.1 mm 4 mps 735 mmHg 71%
    14:00 +5°C° 0.1 mm 4 mps 734 mmHg 70%
    15:00 +5°C° 0.1 mm 4 mps 734 mmHg 69%
    16:00 +5°C° 0.1 mm 4 mps 734 mmHg 70%
    17:00 +4°C° 0.1 mm 4 mps 734 mmHg 72%
    18:00 +4°C° 0.1 mm 3 mps 733 mmHg 73%
    19:00 +4°C° 0 mm 3 mps 733 mmHg 75%
    20:00 +3°C° 0 mm 3 mps 733 mmHg 78%
    21:00 +3°C° 0 mm 3 mps 733 mmHg 80%
    22:00 +4°C° 0 mm 2 mps 733 mmHg 82%
    23:00 +3°C° 0 mm 2 mps 733 mmHg 83%

    Day after tomorrow, 9 April, Thursday

    Time Temperature Precipitation Wind Pressure Humidity
    00:00 +4°C° 0 mm 1 mps 732 mmHg 85%
    01:00 +4°C° 0 mm 1 mps 731 mmHg 85%
    02:00 +4°C° 0 mm 1 mps 731 mmHg 86%
    03:00 +4°C° 0 mm 1 mps 730 mmHg 86%
    04:00 +4°C° 0 mm 1 mps 729 mmHg 87%
    05:00 +3°C° 0 mm 1 mps 729 mmHg 87%
    06:00 +2°C° 0 mm 0 mps 729 mmHg 87%
    07:00 +4°C° 0 mm 1 mps 728 mmHg 83%
    08:00 +5°C° 0 mm 1 mps 727 mmHg 80%
    09:00 +5°C° 0 mm 1 mps 727 mmHg 76%
    10:00 +5°C° 0 mm 2 mps 726 mmHg 73%
    11:00 +6°C° 0 mm 2 mps 726 mmHg 70%
    12:00 +7°C° 0 mm 2 mps 725 mmHg 67%
    13:00 +8°C° 0 mm 2 mps 725 mmHg 65%
    14:00 +8°C° 0 mm 2 mps 724 mmHg 63%
    15:00 +9°C° 0 mm 2 mps 724 mmHg 60%
    16:00 +9°C° 0 mm 2 mps 724 mmHg 61%
    17:00 +9°C° 0 mm 2 mps 724 mmHg 61%
    18:00 +10°C° 0 mm 1 mps 724 mmHg 62%
    19:00 +9°C° 0 mm 1 mps 725 mmHg 64%
    20:00 +8°C° 0 mm 1 mps 725 mmHg 67%
    21:00 +8°C° 0 mm 1 mps 725 mmHg 69%
    22:00 +7°C° 0 mm 1 mps 725 mmHg 72%
    23:00 +7°C° 0 mm 1 mps 725 mmHg 74%

    10 April, Friday

    Time Temperature Precipitation Wind Pressure Humidity
    00:00 +7°C° 0 mm 1 mps 725 mmHg 77%
    01:00 +6°C° 0 mm 1 mps 725 mmHg 79%
    02:00 +6°C° 0 mm 1 mps 724 mmHg 81%
    03:00 +5°C° 0 mm 0 mps 724 mmHg 83%
    04:00 +6°C° 0 mm 1 mps 724 mmHg 83%
    05:00 +6°C° 0 mm 1 mps 724 mmHg 82%
    06:00 +6°C° 0 mm 1 mps 724 mmHg 81%
    07:00 +7°C° 0 mm 1 mps 724 mmHg 76%
    08:00 +8°C° 0 mm 1 mps 723 mmHg 70%
    09:00 +9°C° 0 mm 1 mps 723 mmHg 65%
    10:00 +9°C° 0 mm 2 mps 723 mmHg 63%
    11:00 +10°C° 0 mm 2 mps 723 mmHg 60%
    12:00 +12°C° 0 mm 2 mps 722 mmHg 57%
    13:00 +12°C° 0 mm 2 mps 722 mmHg 56%
    14:00 +13°C° 0 mm 2 mps 722 mmHg 56%
    15:00 +14°C° 0 mm 2 mps 721 mmHg 55%
    16:00 +13°C° 0 mm 2 mps 721 mmHg 58%
    17:00 +13°C° 0 mm 2 mps 721 mmHg 61%
    18:00 +12°C° 0 mm 2 mps 721 mmHg 64%
    19:00 +12°C° 0 mm 2 mps 722 mmHg 67%
    20:00 +10°C° 0 mm 2 mps 722 mmHg 70%
    21:00 +11°C° 0 mm 1 mps 723 mmHg 73%
    22:00 +10°C° 0 mm 1 mps 722 mmHg 75%
    23:00 +10°C° 0 mm 1 mps 722 mmHg 77%

    11 April, Saturday

    Time Temperature Precipitation Wind Pressure Humidity
    00:00 +8°C° 0 mm 2 mps 722 mmHg 79%
    01:00 +9°C° 0 mm 1 mps 722 mmHg 81%
    02:00 +9°C° 0 mm 1 mps 721 mmHg 83%
    03:00 +9°C° 0 mm 1 mps 721 mmHg 85%
    04:00 +9°C° 0 mm 1 mps 721 mmHg 85%
    05:00 +9°C° 0 mm 1 mps 721 mmHg 86%
    06:00 +9°C° 0 mm 1 mps 721 mmHg 86%
    07:00 +9°C° 0 mm 1 mps 721 mmHg 83%
    08:00 +10°C° 0 mm 1 mps 721 mmHg 81%
    09:00 +9°C° 0 mm 2 mps 721 mmHg 79%
    10:00 +10°C° 0.3 mm 2 mps 720 mmHg 81%
    11:00 +10°C° 0.3 mm 2 mps 720 mmHg 82%
    12:00 +10°C° 0.3 mm 3 mps 720 mmHg 83%
    13:00 +10°C° 0.1 mm 3 mps 720 mmHg 78%
    14:00 +11°C° 0.1 mm 3 mps 720 mmHg 72%
    15:00 +12°C° 0.1 mm 3 mps 720 mmHg 67%
    16:00 +12°C° 0 mm 3 mps 720 mmHg 68%
    17:00 +12°C° 0 mm 4 mps 720 mmHg 69%
    18:00 +11°C° 0 mm 4 mps 720 mmHg 70%
    19:00 +11°C° 0 mm 4 mps 721 mmHg 71%
    20:00 +10°C° 0 mm 4 mps 721 mmHg 71%
    21:00 +8°C° 0 mm 4 mps 722 mmHg 72%
    22:00 +8°C° 0 mm 4 mps 722 mmHg 72%
    23:00 +8°C° 0 mm 4 mps 723 mmHg 72%

    12 April, Sunday

    Time Temperature Precipitation Wind Pressure Humidity
    00:00 +8°C° 0 mm 4 mps 723 mmHg 72%
    01:00 +7°C° 0 mm 4 mps 723 mmHg 72%
    02:00 +7°C° 0 mm 4 mps 723 mmHg 72%
    03:00 +7°C° 0 mm 4 mps 723 mmHg 72%
    04:00 +8°C° 0 mm 3 mps 724 mmHg 71%
    05:00 +8°C° 0 mm 3 mps 724 mmHg 70%
    06:00 +8°C° 0 mm 3 mps 725 mmHg 70%
    07:00 +8°C° 0 mm 4 mps 725 mmHg 64%
    08:00 +11°C° 0 mm 4 mps 725 mmHg 59%
    09:00 +12°C° 0 mm 5 mps 726 mmHg 53%
    10:00 +13°C° 0 mm 4 mps 726 mmHg 52%
    11:00 +14°C° 0 mm 4 mps 726 mmHg 51%
    12:00 +14°C° 0 mm 4 mps 726 mmHg 50%
    13:00 +14°C° 0 mm 3 mps 726 mmHg 49%
    14:00 +16°C° 0 mm 3 mps 725 mmHg 48%
    15:00 +16°C° 0 mm 2 mps 725 mmHg 47%
    16:00 +16°C° 0 mm 2 mps 726 mmHg 50%
    17:00 +15°C° 0 mm 2 mps 726 mmHg 53%
    18:00 +15°C° 0 mm 2 mps 726 mmHg 56%
    19:00 +14°C° 0 mm 2 mps 727 mmHg 60%
    20:00 +12°C° 0 mm 3 mps 727 mmHg 63%
    21:00 +11°C° 0 mm 3 mps 728 mmHg 67%
    22:00 +10°C° 0 mm 4 mps 728 mmHg 69%
    23:00 +10°C° 0 mm 4 mps 728 mmHg 71%
    Show more